[[{"header":{"parameterUnit":"m.s-1","parameterCategory":2,"la1":30.2991,"la2":30.254,"lo1":-89.0895,"lo2":-89.0444,"dy":0.0017,"dx":0.0017,"nx":28,"ny":28,"refTime":"2025-09-16T03:00:00:Z","depth":"0","parameterNumber":2,"parameterNumberName":"U-component_of_CURRENTS"},"data":[0,0,0,0,0,0,0,0,0,0,0,0,0,0,0,0,0,0,0,0,0,0,0,0,0,0,0,0,0,0,0,0,0,0,0,0,0,0,0,0,0,0,0,0,0,0,0,0,0,0,0,0,0,0,0,0,0,0,0.3661,0.3662,0,0.3711,0.3711,0.3711,0.3747,0.3748,0.3748,0.3749,0.3748,0.3748,0.3747,0,0,0,0,0,0,0,0,0,0,0,0,0,0.3647,0.3647,0.3661,0.3662,0.3663,0.3711,0.3711,0.3711,0.3747,0.3748,0.3748,0.3749,0.3749,0.3748,0.3747,0,0,0,0,0,0,0,0,0,0,0,0,0,0.3668,0.3647,0.3661,0.3688,0.3692,0.371,0.3711,0.3711,0.3747,0.3748,0.3748,0.3749,0.3749,0.3748,0.3747,0.3725,0,0,0.3745,0.3744,0,0,0,0,0,0,0,0,0.3666,0.3668,0.3683,0.3687,0.369,0.3726,0.3707,0.3715,0.3747,0.3723,0.3749,0.375,0.3738,0.3738,0.3742,0.3725,0.3725,0.3745,0.3744,0.3744,0.3744,0,0,0,0,0,0,0,0.3665,0.3666,0.3677,0.3684,0.3689,0.3716,0.3719,0.3708,0.3721,0.3725,0.3728,0.3738,0.3739,0.3742,0.3742,0.3725,0.3745,0.3744,0.3744,0.3743,0.3732,0.3732,0,0,0,0,0,0,0.3661,0.3664,0.3676,0.3679,0.3684,0.3716,0.3719,0.3711,0.3723,0.3727,0.3738,0.374,0.3743,0.3743,0.3742,0.375,0.3744,0.3743,0.3743,0.3732,0.3732,0.3732,0,0,0,0,0,0,0.366,0.3661,0.3674,0.3677,0.3681,0.3715,0.3706,0.3712,0.3723,0.3734,0.3736,0.3745,0.3744,0.3743,0.3748,0.3749,0.3743,0.3742,0.3732,0.3732,0.3732,0.3745,0,0,0,0,0,0,0.3659,0.366,0.3647,0.3676,0.368,0.3695,0.3706,0.3712,0.3729,0.3733,0.374,0.3741,0.3745,0.3749,0.3747,0.3748,0.3741,0.3732,0.3732,0.3732,0.3744,0.3746,0.3747,0,0,0,0,0,0.3658,0.3645,0.3645,0.3647,0.3662,0.3696,0.37,0.3726,0.3729,0.3738,0.3745,0.3741,0.375,0.3748,0.3746,0.3747,0.3731,0.3732,0.3732,0.3744,0.3746,0.3747,0,0,0,0,0,0,0.362,0.3648,0.3649,0.3639,0.3669,0.3703,0.3711,0.3725,0.3736,0.3737,0.3741,0.3743,0.3753,0.3744,0.3742,0.3746,0.374,0.374,0.375,0.3751,0.3752,0.3837,0.3741,0,0,0,0,0,0.3606,0.361,0.364,0.3632,0.3646,0.3675,0.3688,0.3709,0.3727,0.3734,0.3738,0.3741,0.375,0.3746,0.3753,0.3744,0.3808,0.3744,0.3745,0.3746,0.3813,0.3924,0.3943,0.3734,0.3734,0.3734,0,0,0.359,0.3605,0.3605,0.3626,0.3647,0.368,0.3685,0.371,0.3741,0.3729,0.3754,0.3748,0.3752,0.3758,0.3759,0.3749,0.3824,0.3747,0.3748,0.3816,0.3927,0.3948,0.3967,0.3734,0.3734,0.3734,0,0,0.3586,0.3572,0.359,0.3616,0.3654,0.3676,0.3684,0.3718,0.3736,0.3745,0.3761,0.3775,0.3748,0.3786,0.3791,0.3803,0.3836,0.3771,0.3837,0.3941,0.3961,0.3979,0.4032,0.4055,0.3762,0.3762,0.3762,0,0.3573,0.359,0.36,0.3633,0.3662,0.3677,0.3716,0.3735,0.3765,0.3791,0.3753,0.3795,0.3779,0.3848,0.3849,0.3812,0.3863,0.3825,0.3948,0.3968,0.3987,0.4037,0.4063,0.3762,0.3762,0.3762,0.3762,0,0.3598,0.3612,0.3625,0.3673,0.3701,0.3733,0.3771,0.3788,0.3787,0.3814,0.3864,0.386,0.39,0.387,0.3858,0.3975,0.3962,0.3945,0.3953,0.401,0.4057,0.4083,0.3763,0.3763,0.3763,0.3763,0,0,0.3571,0.3637,0.364,0.3675,0.3729,0.3757,0.3803,0.3864,0.391,0.3915,0.399,0.3996,0.4012,0.4028,0.4018,0.4096,0.4224,0.4078,0.4083,0.4148,0.4435,0.4322,0.434,0.4231,0.4237,0.4242,0.4394,0,0.3595,0.3664,0.3692,0.3755,0.3794,0.3828,0.3877,0.3929,0.3953,0.4019,0.4052,0.4105,0.4066,0.4081,0.4164,0.4223,0.4306,0.4184,0.436,0.4365,0.4274,0.4372,0.4155,0.4266,0.4421,0.4425,0.4429,0,0.3607,0.3659,0.3728,0.3812,0.3833,0.3871,0.3957,0.4007,0.41,0.4121,0.4199,0.4227,0.4349,0.4292,0.4482,0.4406,0.445,0.4483,0.4488,0.4423,0.4306,0.4245,0.4309,0.4146,0.447,0.4467,0.4464,0,0.3585,0.3675,0.3733,0.3761,0.3859,0.3896,0.3948,0.4033,0.4096,0.4208,0.4261,0.4393,0.4462,0.4574,0.4623,0.4576,0.4823,0.4751,0.4699,0.4688,0.4565,0.4534,0.4521,0.4929,0.4929,0.4928,0.4928,0,0.3592,0.3638,0.3725,0.3758,0.3841,0.3899,0.399,0.4051,0.4163,0.4255,0.4329,0.4427,0.4547,0.467,0.4709,0.4793,0.4896,0.4772,0.4754,0.455,0.4517,0.4418,0.4373,0.4934,0.4933,0.4932,0.4931,0,0.3574,0.3616,0.37,0.3805,0.383,0.3896,0.4014,0.4079,0.4179,0.4307,0.4353,0.4506,0.4648,0.4743,0.4912,0.4886,0.4826,0.4973,0.4696,0.4642,0.439,0.4354,0.4292,0.4173,0.4946,0.4945,0.4944,0,0.3594,0.3626,0.3733,0.3773,0.3824,0.3913,0.3966,0.4073,0.4144,0.4344,0.4407,0.4582,0.4659,0.4846,0.4849,0.4911,0.4791,0.4746,0.4622,0.4401,0.4349,0.4193,0.4086,0.4441,0.4435,0.4431,0.4428,0,0.3653,0.3672,0.3739,0.3805,0.386,0.3927,0.4008,0.4056,0.4184,0.4278,0.4398,0.4475,0.4628,0.4585,0.4663,0.467,0.4481,0.4657,0.453,0.4066,0.3805,0.3667,0.4282,0.439,0.4394,0.4396,0.4398,0.44,0.3702,0.3746,0.3793,0.3844,0.3892,0.39,0.3894,0.3969,0.4034,0.4092,0.428,0.4286,0.433,0.4382,0.4375,0.4173,0.422,0.4026,0.4036,0.3923,0.3704,0.4215,0.423,0.4233,0.4235,0.4237,0.4239,0,0.3733,0.3751,0.3822,0.3831,0.3821,0.3856,0.388,0.3821,0.3799,0.3895,0.3944,0.3898,0.385,0.3858,0.373,0.3566,0.3418,0.3467,0.3204,0.316,0.3703,0.3571,0.3319,0.3319,0.3319,0.332,0.332,0.332,0.3745,0.3767,0.3772,0.3728,0.3717,0.3619,0.3583,0.3507,0.3506,0.3389,0.3312,0.3349,0.3418,0.3384,0.3164,0.3083,0.2858,0.2724,0.2768,0.3135,0.3186,0.3235,0.3097,0.275,0.275,0.2042,0.2037,0.2033]},{"header":{"parameterUnit":"m.s-1","parameterCategory":2,"la1":30.2991,"la2":30.254,"lo1":-89.0895,"lo2":-89.0444,"dy":0.0017,"dx":0.0017,"nx":28,"ny":28,"refTime":"2025-09-16T03:00:00:Z","depth":"0","parameterNumber":3,"parameterNumberName":"V-component_of_CURRENTS"},"data":[0,0,0,0,0,0,0,0,0,0,0,0,0,0,0,0,0,0,0,0,0,0,0,0,0,0,0,0,0,0,0,0,0,0,0,0,0,0,0,0,0,0,0,0,0,0,0,0,0,0,0,0,0,0,0,0,0,0,-0.0274,-0.0274,0,-0.0281,-0.0281,-0.0281,-0.0329,-0.033,-0.0331,-0.0332,-0.0371,-0.0371,-0.0371,0,0,0,0,0,0,0,0,0,0,0,0,0,-0.0242,-0.0243,-0.0274,-0.0274,-0.0274,-0.0281,-0.0281,-0.0281,-0.0329,-0.033,-0.0332,-0.0333,-0.0371,-0.0371,-0.0371,0,0,0,0,0,0,0,0,0,0,0,0,0,-0.0254,-0.0243,-0.0274,-0.0298,-0.03,-0.028,-0.0281,-0.0281,-0.0329,-0.033,-0.0332,-0.0333,-0.0371,-0.0371,-0.0371,-0.0337,0,0,-0.0371,-0.0371,0,0,0,0,0,0,0,0,-0.0253,-0.0255,-0.0294,-0.0296,-0.0299,-0.0305,-0.0284,-0.0301,-0.0328,-0.0318,-0.0332,-0.0334,-0.035,-0.0352,-0.035,-0.0339,-0.0341,-0.0371,-0.0371,-0.0371,-0.0371,0,0,0,0,0,0,0,-0.0253,-0.0255,-0.0277,-0.0294,-0.0297,-0.0288,-0.0292,-0.0287,-0.0326,-0.0319,-0.0323,-0.0322,-0.0352,-0.035,-0.0351,-0.0341,-0.0371,-0.0371,-0.0371,-0.0371,-0.0352,-0.0352,0,0,0,0,0,0,-0.0252,-0.0254,-0.0277,-0.0277,-0.0279,-0.0287,-0.0292,-0.0302,-0.0325,-0.033,-0.032,-0.0324,-0.0349,-0.0351,-0.0353,-0.032,-0.0371,-0.0371,-0.037,-0.0353,-0.0352,-0.0352,0,0,0,0,0,0,-0.0251,-0.0254,-0.0277,-0.0265,-0.0267,-0.0287,-0.0297,-0.0301,-0.0305,-0.0326,-0.0332,-0.0321,-0.035,-0.0353,-0.0353,-0.0322,-0.0371,-0.037,-0.0353,-0.0353,-0.0352,-0.025,0,0,0,0,0,0,-0.025,-0.0254,-0.0248,-0.0265,-0.0268,-0.0254,-0.0295,-0.03,-0.0301,-0.0306,-0.0327,-0.0333,-0.0352,-0.0353,-0.0353,-0.0323,-0.037,-0.0354,-0.0353,-0.0352,-0.0254,-0.0246,-0.0239,0,0,0,0,0,-0.0249,-0.023,-0.0248,-0.025,-0.0264,-0.0252,-0.0252,-0.0272,-0.0299,-0.0285,-0.0313,-0.0332,-0.0348,-0.0352,-0.0353,-0.0321,-0.0354,-0.0353,-0.0352,-0.0258,-0.0248,-0.024,0,0,0,0,0,0,-0.0201,-0.0234,-0.0254,-0.0244,-0.0245,-0.026,-0.0241,-0.0266,-0.0275,-0.0283,-0.0318,-0.0323,-0.0316,-0.0336,-0.0339,-0.0318,-0.0357,-0.0356,-0.0285,-0.0276,-0.0269,-0.0229,-0.037,0,0,0,0,0,-0.0191,-0.0192,-0.0216,-0.0202,-0.0202,-0.0224,-0.022,-0.0237,-0.0251,-0.0257,-0.0279,-0.0301,-0.0308,-0.0307,-0.0319,-0.0295,-0.0284,-0.0281,-0.0274,-0.0267,-0.0238,-0.0188,-0.0172,-0.0348,-0.0348,-0.0348,0,0,-0.0163,-0.0182,-0.0181,-0.0192,-0.0196,-0.0179,-0.0225,-0.0212,-0.0199,-0.0257,-0.0244,-0.0274,-0.03,-0.0282,-0.0279,-0.0293,-0.0215,-0.0266,-0.0259,-0.0233,-0.0185,-0.0167,-0.0152,-0.0348,-0.0348,-0.0348,0,0,-0.0106,-0.0131,-0.0113,-0.0114,-0.0121,-0.0134,-0.0131,-0.0149,-0.0155,-0.0149,-0.0192,-0.0198,-0.0214,-0.0216,-0.0222,-0.0178,-0.0182,-0.0195,-0.0111,-0.0063,-0.0047,-0.0032,-0.0004,0.0012,-0.0184,-0.0183,-0.0183,0,-0.0068,-0.0058,-0.0098,-0.0079,-0.0063,-0.0113,-0.0076,-0.0086,-0.0103,-0.0083,-0.0136,-0.0136,-0.0175,-0.0126,-0.0129,-0.0155,-0.0135,-0.0138,-0.0048,-0.0034,-0.002,0.0005,0.0022,-0.0178,-0.0179,-0.0179,-0.018,0,-0.0003,0.001,0.0029,0.0026,0.0035,0.0066,0.004,0.005,0.0022,0.0015,0.0044,-0.0006,0.0007,-0.0023,-0.0068,0.0007,-0.0012,-0.0046,-0.0059,0.0005,0.0026,0.0042,-0.0171,-0.0173,-0.0174,-0.0176,0,0,0.0091,0.0077,0.009,0.0115,0.0097,0.0125,0.0145,0.0178,0.0229,0.0184,0.0263,0.0205,0.0185,0.0176,0.0128,0.0145,0.0222,0.0092,0.0092,0.0142,0.033,0.028,0.0291,0.0214,0.0218,0.0221,0.0306,0,0.0169,0.0229,0.0196,0.0274,0.0311,0.0277,0.0316,0.0331,0.0331,0.039,0.0347,0.0388,0.0261,0.0284,0.0281,0.0252,0.027,0.0202,0.0243,0.0244,0.021,0.031,0.0276,0.0348,0.0321,0.0324,0.0325,0,0.0258,0.0288,0.0369,0.0417,0.0435,0.047,0.0552,0.0578,0.0621,0.0627,0.0647,0.0616,0.0639,0.0518,0.0517,0.0485,0.042,0.0373,0.0375,0.0312,0.0225,0.0278,0.0377,0.0187,0.0349,0.0347,0.0345,0,0.037,0.0423,0.0498,0.0512,0.0547,0.0598,0.0626,0.0668,0.0729,0.0799,0.0868,0.086,0.0901,0.0825,0.0691,0.0632,0.0688,0.0599,0.0493,0.0487,0.0459,0.0446,0.0401,0.0612,0.0612,0.0612,0.0611,0,0.0471,0.0534,0.0564,0.0611,0.0729,0.0717,0.0849,0.087,0.0952,0.1072,0.1013,0.1119,0.0984,0.0975,0.0814,0.072,0.0792,0.0547,0.0527,0.0488,0.0477,0.0307,0.0206,0.0615,0.0614,0.0614,0.0613,0,0.0559,0.0575,0.0672,0.0744,0.0777,0.0866,0.0969,0.1066,0.1127,0.1292,0.1333,0.1364,0.1361,0.1197,0.1102,0.0912,0.0699,0.0734,0.0683,0.0654,0.0346,0.0252,0.0224,0.0157,0.0655,0.0655,0.0654,0,0.0595,0.0657,0.0773,0.0842,0.0875,0.0994,0.1079,0.1148,0.1256,0.1449,0.1551,0.1609,0.1665,0.1496,0.1192,0.0951,0.0738,0.072,0.0582,0.0365,0.0246,0.017,0.011,0.0582,0.0581,0.058,0.058,0,0.0675,0.0723,0.0803,0.094,0.1047,0.117,0.1301,0.1416,0.1538,0.1699,0.1908,0.1983,0.1831,0.1591,0.1229,0.1024,0.0586,0.0695,0.0507,0.0233,0.0118,0.003,0.0467,0.0573,0.0574,0.0574,0.0574,0.0575,0.0739,0.0808,0.0917,0.1042,0.1168,0.1328,0.145,0.1615,0.1825,0.2076,0.2144,0.2277,0.188,0.1403,0.1121,0.0528,0.0561,0.0309,0.0231,0.0188,0.0072,0.0482,0.0528,0.0529,0.0529,0.0529,0.0529,0,0.081,0.0883,0.1003,0.1164,0.1303,0.1356,0.1581,0.1721,0.1985,0.2218,0.2404,0.2246,0.1771,0.1248,0.0477,0.011,-0.0024,-0.0095,-0.0217,-0.0243,0.0159,0.0098,0.0009,0.001,0.001,0.001,0.001,0.001,0.0857,0.0968,0.1017,0.1239,0.1356,0.1555,0.1688,0.1911,0.2103,0.235,0.2412,0.2439,0.1983,0.0696,-0.0153,-0.0326,-0.0578,-0.0626,-0.0716,-0.0488,-0.0457,-0.0428,-0.051,-0.0725,-0.0726,-0.11,-0.1104,-0.1107]}],[{"header":{"parameterUnit":"m.s-1","parameterCategory":2,"la1":30.2991,"la2":30.254,"lo1":-89.0895,"lo2":-89.0444,"dy":0.0017,"dx":0.0017,"nx":28,"ny":28,"refTime":"2025-09-16T03:00:00:Z","depth":"2","parameterNumber":2,"parameterNumberName":"U-component_of_CURRENTS"},"data":[0,0,0,0,0,0,0,0,0,0,0,0,0,0,0,0,0,0,0,0,0,0,0,0,0,0,0,0,0,0,0,0,0,0,0,0,0,0,0,0,0,0,0,0,0,0,0,0,0,0,0,0,0,0,0,0,0,0,0.2519,0.2519,0,0.2496,0.2495,0.2494,0.2511,0.2513,0.2514,0.2516,0.2595,0.2595,0.2596,0,0,0,0,0,0,0,0,0,0,0,0,0,0.246,0.2461,0.2519,0.2519,0.252,0.2496,0.2495,0.2493,0.2511,0.2513,0.2515,0.2517,0.2595,0.2595,0.2596,0,0,0,0,0,0,0,0,0,0,0,0,0,0.2458,0.2461,0.2519,0.2533,0.2534,0.2496,0.2494,0.2493,0.2511,0.2513,0.2515,0.2518,0.2594,0.2595,0.2596,0.2553,0,0,0.2599,0.2599,0,0,0,0,0,0,0,0,0.2458,0.2459,0.253,0.2532,0.2534,0.2517,0.2503,0.2521,0.251,0.251,0.2516,0.2519,0.2583,0.2584,0.256,0.2557,0.256,0.2599,0.2599,0.26,0.26,0,0,0,0,0,0,0,0.2458,0.2459,0.25,0.2531,0.2533,0.25,0.2503,0.2505,0.2527,0.251,0.2513,0.2525,0.2583,0.2559,0.2563,0.2561,0.2599,0.26,0.26,0.2601,0.2695,0.2697,0,0,0,0,0,0,0.2483,0.246,0.2501,0.25,0.2511,0.2501,0.2503,0.2512,0.2525,0.2532,0.2523,0.2526,0.2556,0.2561,0.2566,0.2691,0.26,0.2601,0.2601,0.2693,0.2695,0.2697,0,0,0,0,0,0,0.2482,0.2487,0.2502,0.2487,0.2488,0.2501,0.251,0.2511,0.2547,0.2536,0.2543,0.2568,0.2558,0.2564,0.2624,0.2688,0.2601,0.2602,0.2691,0.2694,0.2696,0.2829,0,0,0,0,0,0,0.248,0.2486,0.2501,0.2489,0.249,0.2537,0.2509,0.2509,0.2551,0.2556,0.2575,0.2581,0.2561,0.2623,0.2625,0.2688,0.2603,0.2688,0.2692,0.2695,0.2822,0.2836,0.2848,0,0,0,0,0,0.2478,0.2494,0.2501,0.2507,0.251,0.254,0.2538,0.2546,0.2552,0.2584,0.2595,0.2584,0.2648,0.2625,0.2627,0.2692,0.2686,0.2691,0.2695,0.2817,0.2834,0.2848,0,0,0,0,0,0,0.2458,0.2498,0.2505,0.2528,0.2561,0.2548,0.2559,0.2579,0.2603,0.2608,0.2605,0.2612,0.269,0.2666,0.2641,0.2727,0.2666,0.2671,0.2758,0.2774,0.2787,0.2793,0.2603,0,0,0,0,0,0.2465,0.2501,0.2528,0.255,0.2564,0.2571,0.2584,0.2601,0.2619,0.2633,0.2657,0.267,0.2693,0.2719,0.2728,0.2772,0.2775,0.2815,0.2828,0.2839,0.2844,0.2926,0.2948,0.2712,0.2712,0.2712,0,0,0.247,0.2488,0.2513,0.2551,0.2556,0.2592,0.2584,0.2621,0.2661,0.2637,0.2703,0.2723,0.2716,0.2771,0.2803,0.2771,0.2905,0.2845,0.2855,0.2854,0.2933,0.2957,0.2977,0.2715,0.2714,0.2714,0,0,0.2481,0.2506,0.2537,0.257,0.2609,0.2624,0.2659,0.2691,0.2717,0.2769,0.2776,0.2838,0.2858,0.2883,0.2888,0.2976,0.2974,0.2992,0.3065,0.3146,0.3167,0.3185,0.3211,0.323,0.2996,0.2997,0.2997,0,0.2522,0.2519,0.2552,0.2581,0.2613,0.2656,0.2697,0.2723,0.2783,0.2816,0.2811,0.2892,0.2902,0.2982,0.3019,0.3009,0.3042,0.301,0.3166,0.3184,0.3201,0.3222,0.3242,0.3003,0.3003,0.3002,0.3001,0,0.2495,0.255,0.2566,0.2628,0.2672,0.2716,0.2769,0.2826,0.2864,0.2899,0.2997,0.3013,0.3063,0.3091,0.308,0.3214,0.3195,0.3179,0.3132,0.3233,0.3248,0.3267,0.3013,0.3011,0.3009,0.3007,0,0,0.2525,0.2559,0.2581,0.2619,0.2703,0.274,0.2816,0.29,0.2966,0.3026,0.3102,0.3172,0.3207,0.3217,0.3241,0.332,0.3465,0.3316,0.3318,0.335,0.3632,0.3502,0.3508,0.3503,0.3507,0.3511,0.3594,0,0.2532,0.2585,0.2597,0.2694,0.2743,0.2805,0.2877,0.2962,0.3031,0.3119,0.3164,0.3243,0.3247,0.3292,0.3379,0.3455,0.3522,0.3442,0.352,0.3521,0.3402,0.3528,0.3236,0.3277,0.3611,0.3614,0.3616,0,0.2521,0.2563,0.2635,0.2744,0.2767,0.2824,0.2952,0.3033,0.3158,0.3201,0.3297,0.3335,0.3464,0.3433,0.3617,0.358,0.3617,0.3657,0.3661,0.3504,0.3426,0.323,0.3297,0.3646,0.3644,0.3642,0.364,0,0.2516,0.2614,0.2669,0.2703,0.2814,0.2854,0.2931,0.3068,0.314,0.328,0.3344,0.3469,0.3559,0.3641,0.3719,0.3698,0.3893,0.3853,0.3756,0.3745,0.3487,0.3446,0.3964,0.3964,0.3964,0.3963,0.3963,0,0.2533,0.2592,0.2669,0.2697,0.2774,0.2871,0.2979,0.3061,0.3195,0.3287,0.3408,0.3495,0.3634,0.374,0.3768,0.3828,0.3931,0.3792,0.3779,0.352,0.3483,0.3787,0.3765,0.3966,0.3966,0.3965,0.3965,0,0.2554,0.2584,0.2652,0.2744,0.2773,0.2844,0.2969,0.305,0.3207,0.3326,0.3369,0.3568,0.3712,0.3794,0.3936,0.39,0.3941,0.3918,0.3577,0.3522,0.3717,0.3702,0.3825,0.3821,0.3819,0.3816,0.3814,0,0.2544,0.2608,0.268,0.2701,0.2737,0.2843,0.2905,0.3031,0.3109,0.3351,0.339,0.3588,0.3651,0.3814,0.379,0.3788,0.3894,0.3523,0.3412,0.3739,0.3714,0.3703,0.3691,0.312,0.3112,0.3106,0.3101,0,0.2569,0.2612,0.265,0.2702,0.2732,0.2792,0.2885,0.2915,0.3079,0.3171,0.3303,0.3376,0.3536,0.3436,0.3471,0.3427,0.3494,0.3394,0.3875,0.3191,0.3079,0.3053,0.3064,0.3046,0.3052,0.3056,0.3059,0.3061,0.2566,0.2606,0.2648,0.267,0.2715,0.2717,0.2715,0.2804,0.2853,0.2931,0.3078,0.3107,0.3176,0.3076,0.2988,0.2943,0.317,0.3043,0.3061,0.3086,0.298,0.2869,0.2774,0.2778,0.2781,0.2784,0.2787,0,0.2511,0.2572,0.2616,0.2608,0.2617,0.267,0.2675,0.263,0.2616,0.2701,0.274,0.2521,0.2477,0.2565,0.2399,0.2388,0.2351,0.2306,0.2247,0.2304,0.2354,0.2209,0.18,0.1797,0.1793,0.1791,0,0,0.2498,0.2465,0.2466,0.2437,0.2507,0.2417,0.238,0.234,0.2332,0.2241,0.2222,0.2367,0.2487,0.2115,0.2062,0.1913,0.209,0.1832,0.2628,0.2616,0.2662,0.2787,0.2629,0,0,0,0,0]},{"header":{"parameterUnit":"m.s-1","parameterCategory":2,"la1":30.2991,"la2":30.254,"lo1":-89.0895,"lo2":-89.0444,"dy":0.0017,"dx":0.0017,"nx":28,"ny":28,"refTime":"2025-09-16T03:00:00:Z","depth":"2","parameterNumber":3,"parameterNumberName":"V-component_of_CURRENTS"},"data":[0,0,0,0,0,0,0,0,0,0,0,0,0,0,0,0,0,0,0,0,0,0,0,0,0,0,0,0,0,0,0,0,0,0,0,0,0,0,0,0,0,0,0,0,0,0,0,0,0,0,0,0,0,0,0,0,0,0,0.0238,0.0237,0,0.0203,0.0203,0.0202,0.0184,0.0183,0.0183,0.0182,0.0098,0.0096,0.0095,0,0,0,0,0,0,0,0,0,0,0,0,0,0.0256,0.0257,0.0238,0.0237,0.0236,0.0203,0.0203,0.0202,0.0184,0.0183,0.0183,0.0182,0.0099,0.0097,0.0094,0,0,0,0,0,0,0,0,0,0,0,0,0,0.0242,0.0257,0.0238,0.0219,0.0217,0.0203,0.0202,0.0202,0.0184,0.0183,0.0183,0.0182,0.0099,0.0097,0.0094,0.0091,0,0,0.0086,0.0085,0,0,0,0,0,0,0,0,0.0243,0.0242,0.0223,0.0221,0.0218,0.0193,0.0178,0.0161,0.0184,0.0201,0.0182,0.0182,0.0123,0.0118,0.012,0.0087,0.0083,0.0086,0.0084,0.0083,0.0082,0,0,0,0,0,0,0,0.0244,0.0243,0.0228,0.0222,0.0219,0.0201,0.0199,0.0175,0.0169,0.02,0.0197,0.0186,0.0122,0.0123,0.0118,0.0082,0.0086,0.0083,0.0082,0.008,0.002,0.002,0,0,0,0,0,0,0.0242,0.0244,0.0229,0.0227,0.0224,0.0201,0.0199,0.0205,0.017,0.0163,0.0187,0.0185,0.0128,0.0121,0.0115,0.0099,0.0083,0.008,0.0079,0.002,0.002,0.002,0,0,0,0,0,0,0.0243,0.0241,0.0231,0.023,0.0227,0.0201,0.0208,0.0205,0.0191,0.016,0.0153,0.0174,0.0127,0.0119,0.0087,0.0096,0.0079,0.0077,0.002,0.002,0.002,0.0074,0,0,0,0,0,0,0.0244,0.0243,0.0248,0.0231,0.0227,0.022,0.0208,0.0204,0.0183,0.0181,0.0146,0.0139,0.0126,0.0091,0.0084,0.0092,0.0074,0.002,0.002,0.002,0.0072,0.0076,0.0079,0,0,0,0,0,0.0245,0.0261,0.0249,0.0246,0.0235,0.0219,0.0217,0.0199,0.0183,0.0182,0.0157,0.0139,0.0087,0.0089,0.0081,0.0088,0.002,0.002,0.002,0.007,0.0075,0.0079,0,0,0,0,0,0,0.0274,0.0259,0.0246,0.0257,0.0234,0.0214,0.0214,0.0191,0.0172,0.0168,0.0136,0.0127,0.0107,0.0084,0.0087,0.007,0.0052,0.005,0.0093,0.0096,0.01,0.0121,0.0072,0,0,0,0,0,0.028,0.0284,0.0262,0.0264,0.026,0.0232,0.0222,0.0206,0.0183,0.0174,0.0148,0.0122,0.0105,0.0088,0.0071,0.0054,0.0034,0.0054,0.0057,0.006,0.0071,0.0044,0.0046,0.0021,0.0021,0.0021,0,0,0.0283,0.0279,0.0277,0.0269,0.0256,0.0256,0.0226,0.0213,0.0215,0.0167,0.0163,0.0131,0.0103,0.0095,0.0083,0.0073,0.0056,0.006,0.0063,0.0072,0.0044,0.0047,0.0049,0.0021,0.0021,0.0021,0,0,0.0294,0.0298,0.0303,0.0297,0.0276,0.0266,0.0257,0.0233,0.023,0.0214,0.0186,0.0155,0.0127,0.0112,0.01,0.0106,0.0077,0.0097,0.0129,0.0103,0.0105,0.0106,0.0085,0.0084,0.0096,0.0097,0.0097,0,0.0286,0.0314,0.0298,0.0308,0.0314,0.0271,0.0284,0.0275,0.024,0.0242,0.022,0.0177,0.0142,0.0135,0.0138,0.0116,0.0096,0.0118,0.0108,0.011,0.011,0.0088,0.0086,0.0099,0.0099,0.0099,0.0098,0,0.0317,0.033,0.0337,0.0342,0.0342,0.0348,0.0336,0.0329,0.0312,0.0299,0.0285,0.0238,0.0213,0.0194,0.0168,0.0157,0.014,0.0119,0.0102,0.0117,0.0091,0.0089,0.0103,0.0102,0.0101,0.0101,0,0,0.03,0.0348,0.0345,0.037,0.0371,0.0376,0.0387,0.0393,0.0406,0.0365,0.0381,0.0331,0.0295,0.0278,0.0233,0.0202,0.0182,0.0165,0.0162,0.0152,0.0128,0.0087,0.008,0.0158,0.0158,0.0158,0.0109,0,0.0319,0.0371,0.0386,0.0421,0.0452,0.0443,0.0464,0.046,0.0454,0.0457,0.0406,0.04,0.0333,0.032,0.0277,0.0219,0.0178,0.0198,0.0109,0.0106,0.0075,0.0077,0.0098,0.0054,0.0106,0.0106,0.0105,0,0.0341,0.0381,0.044,0.0495,0.0507,0.0519,0.056,0.0575,0.0568,0.0566,0.0536,0.0494,0.0449,0.0387,0.0288,0.0305,0.0218,0.016,0.0156,0.0101,0.0061,0.0046,0.0047,0.0101,0.0101,0.0102,0.0102,0,0.0363,0.0414,0.0476,0.0494,0.0545,0.0569,0.0591,0.0603,0.0645,0.0634,0.0661,0.0583,0.0577,0.0454,0.0325,0.0309,0.0215,0.0177,0.0055,0.0051,0.0043,0.0039,0.0091,0.0091,0.0091,0.0092,0.0092,0,0.0393,0.0433,0.0492,0.0527,0.06,0.0613,0.0684,0.0693,0.0728,0.0795,0.0721,0.0757,0.0596,0.052,0.0366,0.0214,0.0243,0.0065,0.0036,0.0061,0.0059,0.0079,0.0078,0.009,0.009,0.0091,0.0091,0,0.0408,0.0446,0.0523,0.0592,0.0616,0.067,0.076,0.0816,0.0838,0.0925,0.0931,0.0905,0.0809,0.0625,0.0446,0.0297,0.0131,0.0059,0.01,0.0075,-0.0027,-0.0024,-0.0074,-0.0076,-0.0078,-0.0079,-0.008,0,0.0429,0.0471,0.0575,0.063,0.0666,0.0746,0.0814,0.0865,0.094,0.1025,0.1081,0.1022,0.0987,0.0712,0.0428,0.0147,0.0117,-0.0012,-0.0055,-0.002,-0.0044,-0.0039,-0.0034,-0.0042,-0.0043,-0.0043,-0.0044,0,0.0476,0.0511,0.0578,0.0693,0.0776,0.0879,0.0977,0.1063,0.1143,0.1216,0.1305,0.128,0.1025,0.0761,0.0375,0.0183,0.003,-0.0035,0.0004,-0.0009,0.0004,-0.0017,-0.0013,-0.0049,-0.0048,-0.0048,-0.0048,-0.0048,0.0518,0.0569,0.066,0.0764,0.0869,0.1007,0.1105,0.1227,0.1363,0.1476,0.1443,0.1406,0.1111,0.0611,0.03,-0.0023,-0.0019,-0.0131,-0.0126,-0.0122,-0.0115,-0.0106,-0.0178,-0.0178,-0.0178,-0.0178,-0.0179,0,0.0583,0.0635,0.0729,0.0865,0.0988,0.103,0.1215,0.1317,0.1496,0.1558,0.1589,0.1283,0.0989,0.0655,0.017,-0.0126,-0.0141,-0.021,-0.0153,-0.0147,-0.0141,-0.0134,-0.0203,-0.0203,-0.0204,-0.0205,0,0,0.062,0.0716,0.0753,0.0944,0.104,0.1208,0.1322,0.1472,0.156,0.1613,0.1574,0.1471,0.108,0.0728,0.0337,0.0077,0.0031,0.0017,0.0064,0.0183,0.0192,-0.0073,-0.0051,0,0,0,0,0]}],[{"header":{"parameterUnit":"m.s-1","parameterCategory":2,"la1":30.2991,"la2":30.254,"lo1":-89.0895,"lo2":-89.0444,"dy":0.0017,"dx":0.0017,"nx":28,"ny":28,"refTime":"2025-09-16T03:00:00:Z","depth":"4","parameterNumber":2,"parameterNumberName":"U-component_of_CURRENTS"},"data":[0,0,0,0,0,0,0,0,0,0,0,0,0,0,0,0,0,0,0,0,0,0,0,0,0,0,0,0,0,0,0,0,0,0,0,0,0,0,0,0,0,0,0,0,0,0,0,0,0,0,0,0,0,0,0,0,0,0,0.1162,0.1163,0,0.1248,0.1249,0.1249,0.1318,0.1319,0.1319,0.132,0.1401,0.1402,0.1404,0,0,0,0,0,0,0,0,0,0,0,0,0,0.1114,0.1114,0.1162,0.1163,0.1164,0.1248,0.1249,0.125,0.1318,0.1319,0.132,0.1321,0.14,0.1402,0.1404,0,0,0,0,0,0,0,0,0,0,0,0,0,0.1159,0.1114,0.1162,0.1209,0.1214,0.1247,0.1249,0.125,0.1317,0.1319,0.132,0.1321,0.14,0.1402,0.1404,0.1392,0,0,0.141,0.1411,0,0,0,0,0,0,0,0,0.1156,0.116,0.1201,0.1206,0.1212,0.1275,0.1262,0.1298,0.1317,0.1277,0.132,0.1322,0.1358,0.1364,0.1375,0.1396,0.1399,0.141,0.1412,0.1413,0.1413,0,0,0,0,0,0,0,0.1153,0.1157,0.1194,0.1202,0.1209,0.1246,0.1253,0.1269,0.1308,0.128,0.1286,0.1297,0.1361,0.1373,0.1378,0.1401,0.141,0.1412,0.1413,0.1414,0.1529,0.1531,0,0,0,0,0,0,0.1141,0.1154,0.1192,0.1197,0.1188,0.1246,0.1254,0.1252,0.1308,0.1319,0.1296,0.13,0.1369,0.1375,0.1381,0.146,0.1413,0.1414,0.1416,0.1527,0.1529,0.1531,0,0,0,0,0,0,0.1139,0.1143,0.1188,0.118,0.1188,0.1245,0.1243,0.1253,0.1305,0.1321,0.1331,0.1342,0.137,0.1378,0.1424,0.146,0.1415,0.1417,0.1525,0.1528,0.153,0.156,0,0,0,0,0,0,0.1137,0.1141,0.1152,0.1178,0.1188,0.1236,0.1242,0.1254,0.1308,0.1315,0.1362,0.1369,0.1372,0.1421,0.1426,0.1462,0.1419,0.1523,0.1526,0.1529,0.1557,0.1563,0.1569,0,0,0,0,0,0.1135,0.1138,0.1151,0.1157,0.1195,0.1238,0.1247,0.1291,0.1309,0.134,0.1367,0.137,0.1447,0.1423,0.1429,0.1467,0.1521,0.1525,0.1529,0.1554,0.1562,0.1569,0,0,0,0,0,0,0.1123,0.1146,0.1161,0.1172,0.1217,0.1251,0.1285,0.1311,0.1356,0.1373,0.1383,0.1392,0.1451,0.1455,0.1429,0.1512,0.1488,0.1493,0.1505,0.1513,0.1519,0.1537,0.1421,0,0,0,0,0,0.1123,0.1142,0.1169,0.1191,0.1209,0.1254,0.1283,0.1316,0.1352,0.1376,0.1395,0.1428,0.1466,0.1486,0.1514,0.155,0.1576,0.1582,0.1589,0.1594,0.1615,0.1685,0.1699,0.1545,0.1545,0.1544,0,0,0.1129,0.1146,0.1159,0.1193,0.1229,0.1255,0.1276,0.1334,0.1368,0.1375,0.1425,0.1453,0.1482,0.1529,0.1556,0.1539,0.1649,0.1599,0.1603,0.1621,0.169,0.1705,0.1719,0.1547,0.1547,0.1546,0,0,0.1144,0.1164,0.118,0.1214,0.1272,0.1292,0.1316,0.1361,0.14,0.1448,0.1467,0.1515,0.1557,0.1583,0.1604,0.1661,0.1684,0.168,0.172,0.1787,0.1801,0.1813,0.1853,0.1868,0.1677,0.1677,0.1677,0,0.1145,0.1172,0.1199,0.1223,0.1259,0.1308,0.1341,0.1377,0.1434,0.1478,0.1474,0.1571,0.1584,0.1657,0.1677,0.1676,0.1716,0.1684,0.1795,0.1808,0.182,0.1858,0.1874,0.1679,0.1679,0.1679,0.1678,0,0.1172,0.1199,0.1219,0.1257,0.1295,0.1344,0.1386,0.1437,0.1482,0.1522,0.1618,0.1636,0.1706,0.1709,0.171,0.1807,0.1808,0.1797,0.1773,0.1837,0.1873,0.189,0.1682,0.1681,0.1681,0.168,0,0,0.1167,0.1219,0.1235,0.1261,0.1326,0.1358,0.1421,0.15,0.1565,0.1618,0.1705,0.1757,0.1797,0.1824,0.1836,0.1876,0.1974,0.1879,0.1882,0.1912,0.2125,0.1959,0.1961,0.1994,0.1997,0.2,0.211,0,0.1189,0.1225,0.1259,0.1318,0.1341,0.1409,0.1461,0.1544,0.1616,0.1703,0.1767,0.1851,0.1833,0.1884,0.1928,0.1981,0.2024,0.1945,0.2064,0.2068,0.1908,0.1977,0.2011,0.2123,0.2127,0.2129,0.2131,0,0.1217,0.1238,0.1282,0.1353,0.1375,0.1423,0.1545,0.16,0.173,0.1795,0.1899,0.1957,0.2059,0.2018,0.2148,0.211,0.2132,0.2143,0.2147,0.1999,0.1934,0.2051,0.2162,0.2159,0.2157,0.2155,0.2153,0,0.1203,0.1267,0.1304,0.1328,0.14,0.1466,0.1527,0.1648,0.1716,0.1876,0.1954,0.2079,0.2161,0.2225,0.2267,0.2239,0.2381,0.2341,0.2205,0.2193,0.2294,0.2281,0.2425,0.2425,0.2424,0.2424,0.2424,0,0.1202,0.124,0.1311,0.1327,0.1396,0.1473,0.1575,0.1655,0.1795,0.1879,0.2013,0.2089,0.2224,0.2314,0.2327,0.2323,0.2444,0.2233,0.222,0.2301,0.2287,0.2305,0.229,0.2428,0.2427,0.2427,0.2426,0,0.116,0.121,0.1238,0.1331,0.138,0.1425,0.1572,0.164,0.1796,0.1913,0.1978,0.2151,0.2263,0.2352,0.2456,0.2386,0.2399,0.2358,0.2448,0.2435,0.2151,0.2137,0.2232,0.2228,0.2224,0.222,0.2217,0,0.112,0.1138,0.1216,0.1237,0.1284,0.1383,0.1451,0.1614,0.1687,0.1915,0.1955,0.2138,0.2229,0.2261,0.2346,0.238,0.2333,0.2333,0.2228,0.2159,0.2138,0.2129,0.212,0.2211,0.221,0.2209,0.2208,0,0.103,0.1073,0.1091,0.1147,0.1214,0.1266,0.1389,0.1442,0.1633,0.1794,0.1907,0.1986,0.2095,0.2165,0.2214,0.2218,0.2336,0.2291,0.2297,0.2199,0.2134,0.2115,0.2111,0.2194,0.2196,0.2197,0.2198,0,0.0962,0.0948,0.0997,0.1038,0.1097,0.1135,0.1215,0.133,0.1433,0.1703,0.1727,0.1912,0.2072,0.208,0.2117,0.2126,0.2078,0.2001,0.2022,0.2039,0.1919,0.1804,0.1771,0,0,0,0,0,0.0897,0.0891,0.0897,0.0922,0.0969,0.1026,0.1163,0.1258,0.1466,0.15,0.162,0.1713,0.1801,0.1884,0.1852,0.1999,0.2066,0.1949,0.1982,0.2118,0.2134,0.2007,0,0,0,0,0,0,0.0861,0.0865,0.0859,0.0821,0.0832,0.089,0.0975,0.1115,0.1154,0.1372,0.1429,0.1591,0.1695,0.1801,0.1813,0.1837,0.1818,0.2061,0.2056,0.2109,0.2123,0.2136,0.2011,0,0,0,0,0]},{"header":{"parameterUnit":"m.s-1","parameterCategory":2,"la1":30.2991,"la2":30.254,"lo1":-89.0895,"lo2":-89.0444,"dy":0.0017,"dx":0.0017,"nx":28,"ny":28,"refTime":"2025-09-16T03:00:00:Z","depth":"4","parameterNumber":3,"parameterNumberName":"V-component_of_CURRENTS"},"data":[0,0,0,0,0,0,0,0,0,0,0,0,0,0,0,0,0,0,0,0,0,0,0,0,0,0,0,0,0,0,0,0,0,0,0,0,0,0,0,0,0,0,0,0,0,0,0,0,0,0,0,0,0,0,0,0,0,0,0.028,0.028,0,0.0262,0.0262,0.0262,0.0248,0.0248,0.0248,0.0249,0.0202,0.0201,0.02,0,0,0,0,0,0,0,0,0,0,0,0,0,0.0269,0.0269,0.028,0.028,0.028,0.0262,0.0262,0.0262,0.0248,0.0248,0.0248,0.0249,0.0203,0.0201,0.02,0,0,0,0,0,0,0,0,0,0,0,0,0,0.0263,0.0269,0.028,0.0273,0.0272,0.0263,0.0262,0.0261,0.0248,0.0248,0.0248,0.0249,0.0203,0.0201,0.0199,0.0185,0,0,0.0193,0.0192,0,0,0,0,0,0,0,0,0.0263,0.0263,0.0274,0.0273,0.0272,0.026,0.0241,0.0235,0.0248,0.0255,0.0249,0.0249,0.022,0.0217,0.021,0.0183,0.0181,0.0193,0.0192,0.0191,0.0191,0,0,0,0,0,0,0,0.0264,0.0263,0.027,0.0274,0.0273,0.026,0.0259,0.024,0.0235,0.0254,0.0254,0.0256,0.0219,0.0212,0.0209,0.018,0.0193,0.0191,0.019,0.0189,0.0143,0.0143,0,0,0,0,0,0,0.0272,0.0264,0.0271,0.027,0.0271,0.026,0.0259,0.0262,0.0235,0.0233,0.0255,0.0255,0.0216,0.0211,0.0207,0.0202,0.0191,0.0189,0.0188,0.0143,0.0143,0.0143,0,0,0,0,0,0,0.0272,0.0273,0.0272,0.0268,0.0268,0.026,0.0263,0.0261,0.0259,0.0237,0.0233,0.0256,0.0216,0.021,0.0193,0.02,0.0188,0.0187,0.0143,0.0143,0.0143,0.0183,0,0,0,0,0,0,0.0272,0.0273,0.0277,0.0269,0.0268,0.0269,0.0263,0.0261,0.0261,0.026,0.0236,0.0232,0.0215,0.0196,0.0191,0.0197,0.0185,0.0143,0.0143,0.0143,0.0182,0.0184,0.0186,0,0,0,0,0,0.0271,0.0276,0.0277,0.0278,0.0275,0.0269,0.0267,0.026,0.0261,0.0259,0.0243,0.0233,0.0192,0.0194,0.0188,0.0194,0.0143,0.0143,0.0143,0.018,0.0184,0.0186,0,0,0,0,0,0,0.0272,0.0276,0.0276,0.0282,0.0278,0.0268,0.0269,0.0264,0.0251,0.0252,0.023,0.0224,0.0212,0.0195,0.0198,0.0179,0.0167,0.0165,0.0197,0.02,0.0202,0.0203,0.0183,0,0,0,0,0,0.0276,0.0282,0.028,0.0284,0.0286,0.0279,0.0277,0.0272,0.0261,0.0256,0.0241,0.0223,0.0205,0.0197,0.0178,0.0166,0.013,0.0166,0.0169,0.0171,0.0167,0.0112,0.0109,0.0143,0.0143,0.0143,0,0,0.0278,0.0281,0.0284,0.0285,0.0284,0.0289,0.0277,0.0277,0.0282,0.0252,0.0252,0.0229,0.0203,0.0192,0.0185,0.018,0.0143,0.0171,0.0173,0.0167,0.0111,0.0108,0.0105,0.0143,0.0143,0.0143,0,0,0.0284,0.0289,0.0296,0.03,0.0302,0.0297,0.03,0.0294,0.0291,0.0283,0.0265,0.0244,0.0223,0.0203,0.0191,0.0192,0.0156,0.0192,0.0206,0.0153,0.015,0.0146,0.0101,0.0094,0.0195,0.0195,0.0195,0,0.0288,0.0299,0.0296,0.0308,0.0317,0.0305,0.0318,0.0312,0.0299,0.0294,0.0288,0.0245,0.0226,0.0205,0.0209,0.0198,0.0163,0.0201,0.0156,0.0152,0.0148,0.0102,0.0093,0.0197,0.0197,0.0197,0.0196,0,0.0299,0.0315,0.0322,0.0336,0.0341,0.035,0.0348,0.0347,0.0341,0.0328,0.0306,0.0271,0.0245,0.0238,0.0225,0.0193,0.0177,0.0165,0.015,0.0147,0.0099,0.0089,0.02,0.0199,0.0198,0.0198,0,0,0.0289,0.0325,0.0328,0.0352,0.0361,0.0369,0.0376,0.0373,0.0379,0.035,0.0342,0.0306,0.0281,0.0265,0.0242,0.0197,0.0143,0.0174,0.017,0.0132,0.0027,0.0032,0.0021,0.0122,0.0121,0.0119,0.0008,0,0.03,0.034,0.0347,0.0384,0.0407,0.0409,0.0419,0.0414,0.0401,0.0388,0.0339,0.0323,0.0295,0.0286,0.0235,0.017,0.0117,0.0174,0.0034,0.003,0.0036,0.001,0.0114,-0.0,-0.0003,-0.0004,-0.0006,0,0.0304,0.0334,0.038,0.0425,0.0435,0.0453,0.0471,0.0481,0.0455,0.0439,0.04,0.0363,0.0305,0.0279,0.0148,0.0186,0.0109,0.0048,0.0042,0.0025,0.0015,0.0001,-0.0025,-0.0023,-0.0022,-0.0021,-0.0019,0,0.0306,0.0354,0.0399,0.0417,0.0461,0.0481,0.05,0.0495,0.0514,0.0475,0.047,0.0384,0.0352,0.0237,0.0125,0.0132,-0.0032,-0.0038,-0.0113,-0.0114,-0.0102,-0.0097,-0.0149,-0.0149,-0.0149,-0.0148,-0.0148,0,0.0319,0.0353,0.0411,0.0441,0.0493,0.0511,0.0557,0.0556,0.0559,0.0577,0.0506,0.0484,0.0339,0.0238,0.0121,-0.0025,-0.0039,-0.0123,-0.0148,-0.0081,-0.0073,-0.0109,-0.0103,-0.0152,-0.0152,-0.0151,-0.015,0,0.0323,0.0359,0.0419,0.048,0.0504,0.0546,0.0617,0.0648,0.0638,0.0657,0.065,0.0553,0.0418,0.0267,0.0076,-0.0015,-0.0162,-0.0214,-0.013,-0.0147,-0.021,-0.02,-0.0312,-0.0313,-0.0314,-0.0314,-0.0315,0,0.0338,0.0369,0.0456,0.0502,0.0539,0.0608,0.066,0.0686,0.0721,0.0699,0.0705,0.0586,0.0503,0.0236,0.0067,-0.0167,-0.0196,-0.0272,-0.0247,-0.0216,-0.0229,-0.0219,-0.0208,-0.0316,-0.0316,-0.0317,-0.0317,0,0.036,0.039,0.0441,0.0542,0.0613,0.0691,0.0762,0.0791,0.0817,0.081,0.0747,0.061,0.045,0.024,0.0057,-0.011,-0.0221,-0.028,-0.028,-0.0257,-0.0222,-0.0232,-0.0221,-0.0319,-0.0319,-0.0319,-0.0319,0,0.038,0.0416,0.0489,0.0579,0.0666,0.0745,0.0783,0.0822,0.0851,0.0828,0.0799,0.0624,0.0522,0.0267,0.0097,-0.0064,-0.0104,-0.0149,-0.0156,-0.0155,-0.0073,-0.0003,-0.0064,0,0,0,0,0,0.0398,0.0444,0.0524,0.0617,0.0702,0.0758,0.084,0.087,0.0892,0.0862,0.0836,0.0688,0.0428,0.0305,0.0144,0.0076,-0.0137,-0.0119,-0.0193,-0.0333,-0.033,-0.026,0,0,0,0,0,0,0.0412,0.048,0.0521,0.063,0.0698,0.0797,0.0852,0.0871,0.0853,0.0843,0.0705,0.0646,0.0389,0.0518,0.0137,0.0086,0.0018,-0.0239,-0.0242,-0.0335,-0.0332,-0.033,-0.0256,0,0,0,0,0]}]]